CW3175 Weather Reports


time (UTC)temp
F
wind
direction
speed
knots
gust
knots
rain 1hr
in
rain 24hr
in
rain mn
in
humidity
%
barometer
mb
20140827130751 73 74 1.7 6.1 0.00 0.00 0.00 74 1018.1
20140827125250 73 23 1.7 5.2 0.00 0.00 0.00 74 1017.8
20140827123751 73 57 0.0 5.2 0.00 0.00 0.00 75 1018.1
20140827122251 73 61 0.9 4.3 0.00 0.00 0.00 75 1017.9
20140827120751 72 61 0.0 4.3 0.00 0.00 0.00 77 1018.0
20140827115251 71 61 0.0 2.6 0.00 0.00 0.00 79 1017.8
20140827113727 71 61 0.0 2.6 0.00 0.00 0.00 80 1017.7
20140827112223 71 61 0.0 1.7 0.00 0.00 0.00 80 1017.5
20140827110710 71 61 0.0 0.9 0.00 0.00 0.00 80 1017.3
20140827105203 71 61 0.0 0.0 0.00 0.00 0.00 80 1017.1
20140827103633 71 61 0.0 3.5 0.00 0.00 0.00 79 1017.1
20140827102132 71 71 0.0 2.6 0.00 0.00 0.00 78 1017.2
20140827100632 71 71 0.0 2.6 0.00 0.00 0.00 78 1017.2
20140827095100 72 35 0.9 4.3 0.00 0.00 0.00 78 1017.3
20140827093549 72 78 0.9 4.3 0.00 0.00 0.00 77 1017.2
20140827092049 72 98 0.0 5.2 0.00 0.00 0.00 76 1017.0
20140827090550 72 52 0.9 6.1 0.00 0.00 0.00 74 1017.1
20140827085049 72 37 0.9 5.2 0.00 0.00 0.00 75 1017.1
20140827083548 72 20 0.9 7.0 0.00 0.00 0.00 75 1017.0
20140827082050 72 40 0.9 5.2 0.00 0.00 0.00 78 1016.8
20140827080547 72 51 0.9 4.3 0.00 0.00 0.00 79 1017.0
20140827075047 72 32 1.7 5.2 0.00 0.00 0.00 79 1016.9
20140827073548 72 41 0.9 5.2 0.00 0.00 0.00 83 1016.9
20140827072044 72 44 0.0 2.6 0.00 0.00 0.00 86 1016.9
20140827070527 72 44 0.0 2.6 0.00 0.00 0.00 86 1016.9
20140827065019 72 44 0.0 0.9 0.00 0.00 0.00 86 1017.0
20140827063515 72 44 0.0 0.0 0.00 0.00 0.00 87 1016.9
20140827062009 72 44 0.0 1.7 0.00 0.00 0.00 86 1017.1
20140827060450 72 44 0.0 3.5 0.00 0.00 0.00 83 1017.1
20140827054950 72 44 0.0 4.3 0.00 0.00 0.00 82 1016.9
20140827053425 72 28 0.9 5.2 0.00 0.00 0.00 87 1017.1
20140827051919 72 59 0.0 2.6 0.00 0.00 0.00 91 1017.1
20140827050415 72 59 0.0 2.6 0.00 0.00 0.00 92 1017.2
20140827044901 72 59 0.0 0.9 0.00 0.00 0.00 92 1017.1
20140827043339 72 47 0.0 2.6 0.00 0.00 0.00 92 1017.1
20140827041837 72 36 0.0 0.9 0.00 0.00 0.00 91 1017.0
20140827040327 72 35 0.0 0.9 0.00 0.00 0.00 91 1017.0
20140827034826 72 32 0.0 2.6 0.00 0.00 0.00 90 1016.6
20140827033327 72 18 0.0 4.3 0.00 0.00 0.00 90 1016.8
20140827031825 72 0 0.0 4.3 0.00 0.00 0.00 91 1016.6
20140827030314 72 103 0.0 2.6 0.00 0.00 0.00 91 1016.5
20140827024805 72 103 0.0 3.5 0.00 0.00 0.00 91 1016.5
20140827023257 72 100 0.0 4.3 0.00 0.00 0.00 90 1016.6
20140827021753 72 107 0.0 3.5 0.00 0.00 0.00 90 1016.5
20140827020245 72 36 0.9 6.1 0.00 0.00 0.00 90 1016.3
20140827014743 73 118 0.0 3.5 0.00 0.00 0.00 90 1015.8
20140827013242 73 69 0.9 5.2 0.00 0.00 0.00 90 1015.4
20140827011743 73 90 0.9 5.2 0.00 0.00 0.00 89 1015.5
20140827004738 73 50 0.9 6.1 0.00 0.00 0.00 87 1015.1
20140827003236 74 59 0.0 4.3 0.00 0.00 0.00 86 1015.3
20140827001659 75 109 0.9 4.3 0.00 0.00 0.00 84 1015.3
20140827000158 75 111 0.0 3.5 0.00 0.00 0.00 82 1015.2
20140826234657 75 53 1.7 5.2 0.00 0.00 0.00 80 1015.4
20140826233147 76 50 0.9 5.2 0.00 0.00 0.00 77 1015.4
20140826231643 78 60 0.9 4.3 0.00 0.00 0.00 73 1015.4
20140826230145 79 99 0.9 4.3 0.00 0.00 0.00 70 1015.3
20140826224641 80 47 0.9 4.3 0.00 0.00 0.00 67 1015.3
20140826223140 81 53 0.9 3.5 0.00 0.00 0.00 62 1015.4
20140826221641 80 53 0.9 4.3 0.00 0.00 0.00 64 1015.8
20140826220140 81 115 0.0 3.5 0.00 0.00 0.00 62 1015.8
20140826214638 81 128 0.9 3.5 0.00 0.00 0.00 64 1015.9
20140826213138 80 76 0.9 4.3 0.00 0.00 0.00 66 1016.0
20140826211619 80 117 0.9 4.3 0.00 0.00 0.00 67 1015.9
20140826210110 80 95 0.9 4.3 0.00 0.00 0.00 67 1016.1
20140826204606 80 113 0.9 4.3 0.00 0.00 0.00 65 1016.3
20140826203050 79 121 0.9 3.5 0.00 0.00 0.00 65 1016.3
20140826201540 79 135 0.9 5.2 0.00 0.00 0.00 65 1016.3
20140826200039 79 73 1.7 7.8 0.00 0.00 0.00 65 1016.5
20140826194538 80 51 1.7 5.2 0.00 0.00 0.00 63 1016.4
20140826193038 79 98 0.9 4.3 0.00 0.00 0.00 63 1016.6
20140826191530 78 161 0.9 6.1 0.00 0.00 0.00 71 1016.5
20140826190028 77 111 0.9 6.1 0.00 0.00 0.00 74 1016.0
20140826184526 75 150 1.7 7.8 0.00 0.00 0.00 80 1016.6
20140826182944 74 119 0.9 5.2 0.00 0.01 0.00 83 1016.4
20140826181438 73 34 0.9 6.1 0.00 0.03 0.00 87 1016.4
20140826175937 72 74 1.7 5.2 0.00 0.14 0.00 88 1016.2
20140826174428 72 51 0.9 5.2 0.00 0.14 0.00 89 1016.1
20140826172850 72 53 1.7 6.1 0.00 0.14 0.00 87 1016.4
20140826171349 73 58 0.0 4.3 0.00 0.14 0.00 86 1017.0
20140826165844 74 14 0.0 3.5 0.00 0.14 0.00 85 1017.6
20140826164334 74 349 0.9 8.7 0.00 0.14 0.00 82 1018.1
20140826162834 75 13 8.7 17.4 0.00 0.14 0.00 81 1017.7
20140826161330 78 348 7.0 15.6 0.00 0.14 0.00 77 1018.0
20140826155829 80 69 0.9 5.2 0.00 0.14 0.00 73 1016.4
20140826154326 82 18 0.9 5.2 0.00 0.14 0.00 71 1015.9
20140826152822 82 227 0.0 4.3 0.00 0.14 0.00 72 1016.0
20140826151306 82 214 0.9 6.1 0.00 0.14 0.00 71 1016.3
20140826145745 82 215 0.9 4.3 0.00 0.14 0.00 69 1016.1
20140826144245 82 175 0.9 6.1 0.00 0.14 0.00 68 1015.8
20140826142737 82 227 0.0 5.2 0.00 0.14 0.00 68 1015.5
20140826141233 81 270 0.0 3.5 0.00 0.14 0.00 70 1015.8
20140826135730 79 287 0.0 2.6 0.00 0.14 0.00 73 1015.4
20140826134231 78 217 0.9 9.6 0.00 0.14 0.00 74 1015.8
20140826132731 76 278 0.0 3.5 0.00 0.14 0.00 77 1015.9
20140826131230 74 278 0.0 2.6 0.00 0.14 0.00 81 1016.0